User: anonymous   Login
Location: Caltech
(34.1382°N, 118.1253°W)
Time: 11:09:53
(UTC-08:00)
Language:

CZ-2C R/B - Orbit

View from above orbital plane
View from above orbital plane
View from above satellite
View from above satellite

Ground track
Ground track

The orbit data is extracted from the following two-line orbital elements,

1 36089U 09061B   16041.94840949 +.00000075 +00000-0 +29885-4 0  9999
2 36089 098.0576 059.6819 0083245 121.2070 299.4090 14.49542573330302
Epoch (UTC): 10 February 2016 22:45:42
Eccentricity: 0.0083245
inclination: 98.0576°
perigee height: 668 km
apogee height: 786 km
right ascension of ascending node: 59.6819°
argument of perigee: 121.2070°
revolutions per day: 14.49542573
mean anomaly at epoch: 299.4090°
orbit number at epoch: 33030

The dashed part of the orbit path shows where the satellite is in the earth's shadow,  

DLR